This is the latest recevied weather packets stored in our database for station/object DJ3AN. If no packets are shown the sender has not sent any weather packets the latest 10 day(s).
| Time | Temp. | Humidity | Pressure | Rain* | Wind** | Luminosity | Snow |
|---|---|---|---|---|---|---|---|
| 1777913706 | 17.78° C | 76% | 1012.2 hPa | 0 mm | - | - | - |
| 1777913407 | 17.78° C | 76% | 1012.3 hPa | 0 mm | - | - | - |
| 1777913106 | 17.78° C | 76% | 1012.2 hPa | 0 mm | - | - | - |
| 1777912805 | 17.78° C | 76% | 1012.2 hPa | 0 mm | - | - | - |
| 1777912505 | 17.78° C | 76% | 1012.1 hPa | 0 mm | - | - | - |
| 1777912205 | 17.78° C | 75% | 1012.2 hPa | 0 mm | - | - | - |
| 1777911905 | 18.33° C | 74% | 1012.2 hPa | 0 mm | - | - | - |
| 1777911605 | 18.33° C | 73% | 1012.2 hPa | 0 mm | - | - | - |
| 1777911305 | 18.89° C | 72% | 1012.2 hPa | 0 mm | - | - | - |
| 1777911005 | 18.89° C | 72% | 1012.2 hPa | 0 mm | - | - | - |
| 1777910708 | 18.89° C | 71% | 1012.2 hPa | 0 mm | - | - | - |
| 1777910405 | 18.89° C | 70% | 1012.3 hPa | 0 mm | - | - | - |
| 1777910105 | 19.44° C | 70% | 1012.3 hPa | 0 mm | - | - | - |
| 1777909807 | 19.44° C | 70% | 1012.3 hPa | 0 mm | - | - | - |
| 1777909505 | 20° C | 68% | 1012.3 hPa | 0 mm | - | - | - |
| 1777909206 | 20° C | 66% | 1012.3 hPa | 0 mm | - | - | - |
| 1777908906 | 20° C | 71% | 1012.4 hPa | 0 mm | - | - | - |
| 1777908606 | 19.44° C | 70% | 1012.5 hPa | 0 mm | - | - | - |
| 1777908306 | 19.44° C | 70% | 1012.4 hPa | 0 mm | - | - | - |
| 1777908006 | 19.44° C | 71% | 1012.4 hPa | 0 mm | - | - | - |
| 1777907706 | 19.44° C | 71% | 1012.4 hPa | 0 mm | - | - | - |
| 1777907405 | 19.44° C | 70% | 1012.4 hPa | 0 mm | - | - | - |
| 1777907105 | 19.44° C | 70% | 1012.4 hPa | 0 mm | - | - | - |
| 1777906806 | 19.44° C | 71% | 1012.4 hPa | 0 mm | - | - | - |
| 1777906505 | 18.89° C | 74% | 1012.4 hPa | 0 mm | - | - | - |
* Rain latest hour (hover to see other rain measurements)
** Current wind speed in m/s (hover to see current wind gust speed)